This is the latest recevied weather packets stored in our database for station/object N7CEE-2. If no packets are shown the sender has not sent any weather packets the latest 10 day(s).
| Time | Temp. | Humidity | Pressure | Rain* | Wind** | Luminosity | Snow |
|---|---|---|---|---|---|---|---|
| 1777532229 | 22.78° C | 25% | 1014.4 hPa | 0 mm | - | 0 W/m² | - |
| 1777531926 | 22.78° C | 24% | 1014 hPa | 0 mm | - | 0 W/m² | - |
| 1777531621 | 22.78° C | 23% | 1014 hPa | 0 mm | - | 0 W/m² | - |
| 1777531319 | 22.78° C | 24% | 1014.1 hPa | 0 mm | - | 0 W/m² | - |
| 1777531016 | 22.78° C | 25% | 1014.1 hPa | 0 mm | - | 0 W/m² | - |
| 1777530713 | 23.33° C | 24% | 1014 hPa | 0 mm | - | 0 W/m² | - |
| 1777530411 | 23.33° C | 22% | 1013.9 hPa | 0 mm | - | 0 W/m² | - |
| 1777530106 | 23.33° C | 21% | 1014 hPa | 0 mm | - | 0 W/m² | - |
| 1777529804 | 23.33° C | 21% | 1014.1 hPa | 0 mm | - | 0 W/m² | - |
| 1777529500 | 23.33° C | 23% | 1014.3 hPa | 0 mm | - | 0 W/m² | - |
| 1777529199 | 22.78° C | 23% | 1014.4 hPa | 0 mm | - | 0 W/m² | - |
| 1777528894 | 23.33° C | 21% | 1014.3 hPa | 0 mm | - | 0 W/m² | - |
| 1777528590 | 23.89° C | 21% | 1014.4 hPa | 0 mm | - | 0 W/m² | - |
| 1777528288 | 23.89° C | 21% | 1014.5 hPa | 0 mm | - | 0 W/m² | - |
| 1777527987 | 23.89° C | 20% | 1014.5 hPa | 0 mm | - | 0 W/m² | - |
| 1777527681 | 24.44° C | 20% | 1014.5 hPa | 0 mm | - | 0 W/m² | - |
| 1777527377 | 25° C | 19% | 1014.4 hPa | 0 mm | - | 0 W/m² | - |
| 1777527073 | 25° C | 19% | 1014.3 hPa | 0 mm | - | 0 W/m² | - |
| 1777526769 | 25° C | 19% | 1014.5 hPa | 0 mm | - | 0 W/m² | - |
| 1777526463 | 25.56° C | 19% | 1014.4 hPa | 0 mm | - | 0 W/m² | - |
| 1777526158 | 25° C | 19% | 1014.3 hPa | 0 mm | - | 0 W/m² | - |
| 1777525855 | 25° C | 19% | 1014.3 hPa | 0 mm | - | 0 W/m² | - |
| 1777525553 | 25° C | 19% | 1014.4 hPa | 0 mm | - | 0 W/m² | - |
| 1777525249 | 25° C | 19% | 1014.6 hPa | 0 mm | - | 0 W/m² | - |
| 1777524945 | 25° C | 19% | 1014.5 hPa | 0 mm | - | 0 W/m² | - |
* Rain latest hour (hover to see other rain measurements)
** Current wind speed in m/s (hover to see current wind gust speed)